Weather History for KY50 - June, 2013

Change the Weather History Date:

Friday, June 28, 2013

  Actual Average (WUND) Record (WUND)
Temperature  
Mean Temperature 68 °F -  
Max Temperature 73 °F - - (-1)
Min Temperature 63 °F - - (-1)
Cooling Degree Days 3    
Growing Degree Days 18 (Base 50)    
Moisture  
Dew Point 63 °F    
Average Humidity 88    
Maximum Humidity 100    
Minimum Humidity 61    
Precipitation  
Precipitation 0.12 in - - ()
Sea Level Pressure  
Sea Level Pressure 29.67 in    
Wind  
Wind Speed 7 mph (NNW)    
Max Wind Speed 15 mph    
Max Gust Speed 21 mph    
Visibility 8 miles    
Events Rain    
Averages and records for this station are not official NWS values.
T = Trace of Precipitation, MM = Missing Value Source: NWS Daily Summary

Daily Weather History Graph

Daily Weather History Graph

Search for Another Location

Airport or City:

Trip Planner

Search our weather history database for the weather conditions in past years. The results will help you decide how hot, cold, wet, or windy it might be!

Date:

Astronomy

Jun. 28, 2013 Rise Set
Actual Time 5:16 AM CDT 8:44 PM CDT
Civil Twilight 4:40 AM CDT 9:20 PM CDT
Nautical Twilight 3:52 AM CDT 10:08 PM CDT
Astronomical Twilight 2:52 AM CDT 11:08 PM CDT
Moon 11:58 PM CDT (6/28) 11:38 AM CDT (6/28)
Length of Visible Light 16h 40m
Length of Day
15h 27m
Waning Gibbous, 66% of the Moon is Illuminated
Jun 28
Waning Gibbous
Jun 29
Last Quarter
Jul 8
New
Jul 15
First Quarter
Jul 22
Full

Hourly Weather History & Observations

Time (CDT) Temp. Dew Point Humidity Pressure Visibility Wind Dir Wind Speed Gust Speed Precip Events Conditions
12:56 AM 64.9 °F 61.9 °F 90% 29.71 in 10.0 mi WSW 4.6 mph - N/A   Partly Cloudy
1:56 AM 63.9 °F 61.0 °F 90% 29.70 in 10.0 mi WSW 6.9 mph - N/A   Clear
2:56 AM 63.9 °F 61.9 °F 93% 29.68 in 10.0 mi West 4.6 mph - N/A   Mostly Cloudy
3:56 AM 64.4 °F 59.0 °F 83% 29.71 in 8.0 mi West 10.4 mph - N/A Rain Light Rain
4:56 AM 63.9 °F 59.9 °F 87% 29.68 in 10.0 mi West 8.1 mph - 0.00 in   Mostly Cloudy
5:56 AM 63.0 °F 57.9 °F 84% 29.69 in 10.0 mi WNW 8.1 mph - N/A   Clear
6:56 AM 64.9 °F 57.9 °F 78% 29.68 in 10.0 mi WNW 9.2 mph - N/A   Clear
7:56 AM 68.0 °F 59.0 °F 73% 29.67 in 10.0 mi WNW 11.5 mph - N/A   Clear
8:56 AM 70.0 °F 59.9 °F 70% 29.66 in 10.0 mi WNW 11.5 mph 17.3 mph N/A   Clear
9:56 AM 72.0 °F 57.9 °F 61% 29.65 in 10.0 mi NW 15.0 mph 20.7 mph N/A   Scattered Clouds
10:56 AM 70.9 °F 57.9 °F 63% 29.65 in 10.0 mi NW 11.5 mph - N/A   Mostly Cloudy
11:56 AM 72.0 °F 59.0 °F 64% 29.66 in 10.0 mi NW 10.4 mph - N/A   Mostly Cloudy
12:56 PM 69.8 °F 62.6 °F 78% 29.67 in 6.0 mi NNW 9.2 mph - N/A Rain Light Rain
1:11 PM 66.2 °F 62.6 °F 88% 29.67 in 2.5 mi NW 10.4 mph - 0.02 in Rain Heavy Rain
1:18 PM 64.4 °F 64.4 °F 100% 29.67 in 2.0 mi WNW 9.2 mph - 0.03 in Rain Light Rain
1:35 PM 66.2 °F 62.6 °F 88% 29.67 in 10.0 mi NW 8.1 mph - 0.03 in Rain Light Rain
1:42 PM 68.0 °F 62.6 °F 83% 29.66 in 10.0 mi WNW 6.9 mph - 0.03 in   Mostly Cloudy
1:56 PM 70.0 °F 63.0 °F 78% 29.64 in 10.0 mi NW 8.1 mph - 0.03 in   Partly Cloudy
2:56 PM 72.9 °F 61.9 °F 68% 29.63 in 10.0 mi NNW 12.7 mph 17.3 mph 0.00 in   Partly Cloudy
3:16 PM 69.8 °F 64.4 °F 83% 29.65 in 3.0 mi WNW 8.1 mph 19.6 mph 0.02 in Rain Light Rain
3:56 PM 73.4 °F 64.4 °F 73% 29.64 in 10.0 mi NNW 11.5 mph - N/A   Partly Cloudy
4:56 PM 70.0 °F 63.0 °F 78% 29.63 in 10.0 mi NW 13.8 mph - 0.00 in Rain Light Rain
5:11 PM 69.8 °F 64.4 °F 83% 29.65 in 10.0 mi NW 8.1 mph - 0.00 in   Scattered Clouds
5:56 PM 70.9 °F 63.9 °F 78% 29.63 in 10.0 mi NNW 9.2 mph - 0.00 in   Partly Cloudy
6:36 PM 69.8 °F 60.8 °F 73% 29.66 in 10.0 mi North 5.8 mph - N/A   Mostly Cloudy
6:56 PM 66.2 °F 62.6 °F 88% 29.66 in 1.8 mi North 6.9 mph - N/A Rain Heavy Rain
6:58 PM 66.2 °F 62.6 °F 88% 29.66 in 1.0 mi North 4.6 mph - 0.02 in Rain Heavy Rain
7:05 PM 64.4 °F 62.6 °F 94% 29.66 in 0.8 mi North 3.5 mph - 0.06 in Rain Rain
7:07 PM 64.4 °F 62.6 °F 94% 29.67 in 1.2 mi NNE 4.6 mph - 0.06 in Rain Light Rain
7:09 PM 64.4 °F 64.4 °F 100% 29.67 in 2.5 mi NNE 4.6 mph - 0.06 in Rain Light Rain
7:16 PM 64.4 °F 64.4 °F 100% 29.67 in 8.0 mi NW 3.5 mph - 0.06 in Rain Light Rain
7:26 PM 64.4 °F 64.4 °F 100% 29.67 in 5.0 mi North 3.5 mph - 0.07 in Rain Light Rain
7:45 PM 66.2 °F 64.4 °F 94% 29.67 in 10.0 mi Calm Calm - 0.08 in Rain Light Rain
7:56 PM 64.9 °F 64.9 °F 100% 29.65 in 10.0 mi Calm Calm - 0.08 in   Scattered Clouds
8:56 PM 64.9 °F 64.9 °F 100% 29.67 in 9.0 mi North 3.5 mph - 0.00 in Rain Light Rain
9:21 PM 64.4 °F 64.4 °F 100% 29.69 in 7.0 mi NNW 3.5 mph - 0.04 in Rain Light Rain
9:24 PM 64.4 °F 64.4 °F 100% 29.69 in 9.0 mi NNW 4.6 mph - 0.05 in Rain Light Rain
9:27 PM 64.4 °F 64.4 °F 100% 29.69 in 9.0 mi North 3.5 mph - 0.05 in Rain Light Rain
9:35 PM 64.4 °F 64.4 °F 100% 29.69 in 2.5 mi North 6.9 mph - 0.11 in Rain Rain
9:38 PM 64.4 °F 64.4 °F 100% 29.69 in 1.2 mi North 8.1 mph - 0.14 in Rain Rain
9:56 PM 64.4 °F 64.4 °F 100% 29.69 in 4.0 mi North 5.8 mph - N/A Rain Light Rain
10:06 PM 64.4 °F 64.4 °F 100% 29.69 in 10.0 mi North 4.6 mph - 0.00 in Rain Light Rain
10:56 PM 63.9 °F 63.9 °F 100% 29.66 in 10.0 mi NW 3.5 mph - 0.00 in   Scattered Clouds
11:24 PM 64.4 °F 64.4 °F 100% 29.69 in 10.0 mi North 4.6 mph - N/A   Overcast
11:37 PM 64.4 °F 64.4 °F 100% 29.69 in 5.0 mi NNE 10.4 mph - 0.01 in Rain Light Rain
11:56 PM 63.9 °F 63.9 °F 100% 29.67 in 10.0 mi NNE 4.6 mph - 0.01 in Rain Light Rain